Hourly Weather Ozerevichi

Today, 6 May, Thursday

Time Temperature Precipitation Wind Pressure Humidity
00:00 +4°C° 0 mm 2 mps 737 mmHg 97%
01:00 +4°C° 0 mm 2 mps 736 mmHg 97%
02:00 +4°C° 0 mm 2 mps 736 mmHg 98%
03:00 +4°C° 0.5 mm 3 mps 735 mmHg 98%
04:00 +5°C° 0.5 mm 3 mps 734 mmHg 97%
05:00 +6°C° 0.5 mm 4 mps 733 mmHg 97%
06:00 +7°C° 0.1 mm 4 mps 733 mmHg 92%
07:00 +10°C° 0.1 mm 4 mps 732 mmHg 88%
08:00 +10°C° 0 mm 5 mps 732 mmHg 84%
09:00 +12°C° 0.2 mm 5 mps 731 mmHg 81%
10:00 +13°C° 0.2 mm 6 mps 730 mmHg 78%
11:00 +15°C° 0.2 mm 6 mps 730 mmHg 75%
12:00 +13°C° 0.7 mm 6 mps 730 mmHg 80%
13:00 +10°C° 0.7 mm 6 mps 730 mmHg 84%
14:00 +8°C° 0.7 mm 6 mps 729 mmHg 89%
15:00 +7°C° 0.3 mm 6 mps 730 mmHg 90%
16:00 +6°C° 0.3 mm 5 mps 731 mmHg 92%
17:00 +5°C° 0.3 mm 5 mps 732 mmHg 93%
18:00 +5°C° 0.1 mm 5 mps 733 mmHg 92%
19:00 +3°C° 0.1 mm 5 mps 733 mmHg 90%
20:00 +4°C° 0.1 mm 4 mps 734 mmHg 89%
21:00 +3°C° 0 mm 5 mps 734 mmHg 88%
22:00 +3°C° 0 mm 5 mps 735 mmHg 87%
23:00 +3°C° 0 mm 5 mps 735 mmHg 86%

Tomorrow, 7 May, Friday

Time Temperature Precipitation Wind Pressure Humidity
00:00 +3°C° 0.1 mm 5 mps 735 mmHg 87%
01:00 +3°C° 0.1 mm 5 mps 736 mmHg 87%
02:00 +2°C° 0.1 mm 5 mps 736 mmHg 88%
03:00 +2°C° 0 mm 5 mps 736 mmHg 87%
04:00 +2°C° 0 mm 5 mps 736 mmHg 86%
05:00 +3°C° 0 mm 4 mps 737 mmHg 85%
06:00 +3°C° 0 mm 5 mps 737 mmHg 80%
07:00 +5°C° 0 mm 5 mps 737 mmHg 74%
08:00 +6°C° 0 mm 5 mps 738 mmHg 69%
09:00 +7°C° 0.2 mm 6 mps 738 mmHg 64%
10:00 +8°C° 0.2 mm 6 mps 738 mmHg 59%
11:00 +9°C° 0.2 mm 6 mps 738 mmHg 55%
12:00 +9°C° 0.2 mm 6 mps 738 mmHg 56%
13:00 +9°C° 0.2 mm 5 mps 739 mmHg 57%
14:00 +9°C° 0.2 mm 5 mps 739 mmHg 58%
15:00 +10°C° 0.1 mm 4 mps 739 mmHg 58%
16:00 +10°C° 0.1 mm 4 mps 739 mmHg 59%
17:00 +10°C° 0.1 mm 3 mps 739 mmHg 60%
18:00 +9°C° 0 mm 3 mps 739 mmHg 67%
19:00 +8°C° 0 mm 2 mps 739 mmHg 73%
20:00 +7°C° 0 mm 2 mps 739 mmHg 80%
21:00 +7°C° 0.3 mm 2 mps 739 mmHg 84%
22:00 +7°C° 0.3 mm 2 mps 739 mmHg 88%
23:00 +7°C° 0.3 mm 3 mps 738 mmHg 92%

Day after tomorrow, 8 May, Saturday

Time Temperature Precipitation Wind Pressure Humidity
00:00 +7°C° 1 mm 3 mps 737 mmHg 93%
01:00 +7°C° 1 mm 3 mps 737 mmHg 93%
02:00 +6°C° 1 mm 4 mps 736 mmHg 94%
03:00 +6°C° 1.2 mm 4 mps 735 mmHg 94%
04:00 +6°C° 1.2 mm 5 mps 735 mmHg 94%
05:00 +6°C° 1.2 mm 5 mps 734 mmHg 94%
06:00 +7°C° 0.1 mm 4 mps 734 mmHg 93%
07:00 +7°C° 0.1 mm 4 mps 735 mmHg 92%
08:00 +8°C° 0.1 mm 3 mps 735 mmHg 91%
09:00 +9°C° 0.2 mm 3 mps 734 mmHg 87%
10:00 +10°C° 0.2 mm 3 mps 734 mmHg 83%
11:00 +10°C° 0.2 mm 2 mps 734 mmHg 80%
12:00 +10°C° 1 mm 2 mps 734 mmHg 85%
13:00 +9°C° 1 mm 2 mps 734 mmHg 90%
14:00 +8°C° 1 mm 2 mps 734 mmHg 96%
15:00 +7°C° 1.8 mm 2 mps 734 mmHg 96%
16:00 +7°C° 1.8 mm 3 mps 734 mmHg 96%
17:00 +5°C° 1.8 mm 3 mps 733 mmHg 95%
18:00 +5°C° 2 mm 3 mps 734 mmHg 96%
19:00 +4°C° 2 mm 4 mps 734 mmHg 96%
20:00 +2°C° 2 mm 5 mps 734 mmHg 96%
21:00 +2°C° 1.6 mm 5 mps 734 mmHg 96%
22:00 +2°C° 1.6 mm 6 mps 735 mmHg 97%
23:00 +2°C° 1.6 mm 6 mps 735 mmHg 97%

9 May, Sunday

Time Temperature Precipitation Wind Pressure Humidity
00:00 +2°C° 0.3 mm 6 mps 736 mmHg 97%
01:00 +2°C° 0.3 mm 6 mps 737 mmHg 96%
02:00 +2°C° 0.3 mm 6 mps 737 mmHg 96%
03:00 +1°C° 0.1 mm 6 mps 738 mmHg 96%
04:00 +1°C° 0.1 mm 6 mps 739 mmHg 96%
05:00 +1°C° 0.1 mm 6 mps 740 mmHg 95%
06:00 +2°C° 0 mm 6 mps 741 mmHg 90%
07:00 +3°C° 0 mm 6 mps 742 mmHg 84%
08:00 +5°C° 0 mm 5 mps 743 mmHg 78%
09:00 +6°C° 0 mm 5 mps 744 mmHg 67%
10:00 +7°C° 0 mm 5 mps 745 mmHg 57%
11:00 +9°C° 0 mm 6 mps 745 mmHg 46%
12:00 +9°C° 0 mm 5 mps 746 mmHg 43%
13:00 +9°C° 0 mm 5 mps 747 mmHg 39%
14:00 +10°C° 0 mm 5 mps 747 mmHg 36%
15:00 +11°C° 0 mm 4 mps 748 mmHg 40%
16:00 +11°C° 0 mm 4 mps 748 mmHg 44%
17:00 +11°C° 0 mm 3 mps 749 mmHg 48%
18:00 +9°C° 0 mm 3 mps 749 mmHg 56%
19:00 +7°C° 0 mm 2 mps 750 mmHg 65%
20:00 +6°C° 0 mm 2 mps 750 mmHg 73%
21:00 +5°C° 0 mm 2 mps 751 mmHg 74%
22:00 +4°C° 0 mm 2 mps 751 mmHg 75%
23:00 +3°C° 0 mm 2 mps 751 mmHg 77%

10 May, Monday

Time Temperature Precipitation Wind Pressure Humidity
00:00 +3°C° 0 mm 2 mps 752 mmHg 77%
01:00 +3°C° 0 mm 2 mps 752 mmHg 77%
02:00 +2°C° 0 mm 3 mps 753 mmHg 77%
03:00 +3°C° 0 mm 3 mps 753 mmHg 76%
04:00 +3°C° 0 mm 3 mps 753 mmHg 75%
05:00 +4°C° 0 mm 3 mps 753 mmHg 74%
06:00 +5°C° 0 mm 3 mps 753 mmHg 70%
07:00 +7°C° 0 mm 4 mps 753 mmHg 65%
08:00 +8°C° 0 mm 4 mps 754 mmHg 60%
09:00 +10°C° 0 mm 4 mps 754 mmHg 59%
10:00 +11°C° 0 mm 4 mps 754 mmHg 58%
11:00 +12°C° 0 mm 5 mps 754 mmHg 57%
12:00 +13°C° 0 mm 5 mps 754 mmHg 55%
13:00 +15°C° 0 mm 4 mps 754 mmHg 52%
14:00 +17°C° 0 mm 4 mps 754 mmHg 49%
15:00 +17°C° 0 mm 4 mps 754 mmHg 52%
16:00 +17°C° 0 mm 4 mps 754 mmHg 54%
17:00 +17°C° 0 mm 3 mps 754 mmHg 56%
18:00 +14°C° 0 mm 3 mps 754 mmHg 64%
19:00 +12°C° 0 mm 3 mps 754 mmHg 73%
20:00 +10°C° 0 mm 2 mps 754 mmHg 81%
21:00 +10°C° 0 mm 2 mps 755 mmHg 83%
22:00 +9°C° 0 mm 2 mps 755 mmHg 85%
23:00 +8°C° 0 mm 2 mps 755 mmHg 87%

11 May, Tuesday

Time Temperature Precipitation Wind Pressure Humidity
00:00 +8°C° 0 mm 2 mps 755 mmHg 88%
01:00 +7°C° 0 mm 2 mps 755 mmHg 89%
02:00 +7°C° 0 mm 2 mps 755 mmHg 90%
03:00 +7°C° 0 mm 2 mps 755 mmHg 88%
04:00 +8°C° 0 mm 2 mps 756 mmHg 86%
05:00 +8°C° 0 mm 3 mps 756 mmHg 84%
06:00 +10°C° 0 mm 3 mps 756 mmHg 75%
07:00 +12°C° 0 mm 3 mps 756 mmHg 66%
08:00 +14°C° 0 mm 3 mps 756 mmHg 57%
09:00 +16°C° 0 mm 3 mps 756 mmHg 52%
10:00 +18°C° 0 mm 3 mps 756 mmHg 48%
11:00 +19°C° 0 mm 3 mps 756 mmHg 43%
12:00 +20°C° 0 mm 3 mps 756 mmHg 41%
13:00 +20°C° 0 mm 3 mps 756 mmHg 40%
14:00 +21°C° 0 mm 3 mps 755 mmHg 39%
15:00 +21°C° 0 mm 3 mps 755 mmHg 42%
16:00 +20°C° 0 mm 3 mps 755 mmHg 44%
17:00 +20°C° 0 mm 2 mps 755 mmHg 47%
18:00 +18°C° 0 mm 2 mps 755 mmHg 56%
19:00 +15°C° 0 mm 2 mps 755 mmHg 65%
20:00 +13°C° 0 mm 2 mps 755 mmHg 74%
21:00 +12°C° 0 mm 2 mps 755 mmHg 76%
22:00 +10°C° 0 mm 2 mps 755 mmHg 78%
23:00 +9°C° 0 mm 2 mps 755 mmHg 81%
Show more

We Need Your Consent

Meteoprog and our Service Providers may store and access personal data such as cookies, device identifiers or other similar technologies on your device and process such data to personalise content and ads, as well as provide social media features and to analyse the traffic.

  • Store and/or access information on your device

    Cookies, device identifiers or other information can be stored or accessed on your device for the purposes indicated above.

  • Personalised ads and content, ad and content measurement, audience insights, and products development

    Ads and content can be personalised based on a profile. More data can be added to better personalise ads and content. Ad and content performance can be measured. Insights about the audience who saw the ads and content can be derived. Such data can be used to develop or improve user’s experience, systems and software.

By clicking ‘I Agree’ you will allow the use of indicated cookies, device identifiers, web beacons or other similar technologies. Your settings can be changed in the browser on your device.

For certain purposes, legitimate interests may be relied on, rather than consent. You can read more about this in our Privacy and Cookie Policy.